Weather History for Chignik, AK

Change the Weather History Date:

Friday, June 14, 2013

  Actual Average Record
Temperature  
Mean Temperature 48 °F -  
Max Temperature 53 °F 50 °F 60 °F (2003)
Min Temperature 44 °F 42 °F 39 °F (2012)
Degree Days  
Heating Degree Days 16    
Moisture  
Dew Point 43 °F    
Average Humidity 81    
Maximum Humidity 93    
Minimum Humidity 67    
Precipitation  
Precipitation 0.00 in - - ()
Sea Level Pressure  
Sea Level Pressure 30.32 in    
Wind  
Wind Speed 2 mph (NNW)    
Max Wind Speed 8 mph    
Max Gust Speed -    
Visibility 10 miles    
Events      
Averages and records for this station are not official NWS values.
T = Trace of Precipitation, MM = Missing Value Source: NWS Daily Summary

Daily Weather History Graph

Daily Weather History Graph

Search for Another Location

Airport:

Trip Planner

Search our weather history database for the weather conditions in past years. The results will help you decide how hot, cold, wet, or windy it might be!

Date:

Astronomy

Jun. 14, 2013 Rise Set
Actual Time 5:44 AM AKDT 11:23 PM AKDT
Civil Twilight 4:40 AM AKDT 12:27 AM AKDT
Nautical Twilight 3:06 AM AKDT 2:01 AM AKDT
Astronomical Twilight Sun does not rise Sun does not rise
Moon 12:33 PM AKDT (6/14) 1:37 AM AKDT (6/14)
Length of Visible Light 19h 46m
Length of Day
17h 39m
Waxing Crescent, 31% of the Moon is Illuminated
Jun 14
Waxing Crescent
Jun 16
First Quarter
Jun 23
Full
Jun 29
Last Quarter
Jul 7
New

Hourly Weather History & Observations

Time (AKDT) Temp. Windchill Dew Point Humidity Pressure Visibility Wind Dir Wind Speed Gust Speed Precip Events Conditions
12:16 AM 46.4 °F 45.2 °F 42.8 °F 87% 30.27 in 10.0 mi WSW 3.5 mph - N/A   Overcast
12:36 AM 46.4 °F - 42.8 °F 87% 30.27 in 10.0 mi Calm Calm - N/A   Mostly Cloudy
12:56 AM 44.6 °F 43.1 °F 41.0 °F 87% 30.27 in 10.0 mi SW 3.5 mph - N/A   Overcast
1:16 AM 44.6 °F - 42.8 °F 93% 30.28 in 10.0 mi Calm Calm - N/A   Overcast
1:36 AM 44.6 °F - 41.0 °F 87% 30.28 in 10.0 mi Calm Calm - N/A   Overcast
1:56 AM 44.6 °F - 41.0 °F 87% 30.29 in 10.0 mi Calm Calm - N/A   Overcast
2:16 AM 46.4 °F - 41.0 °F 81% 30.29 in 10.0 mi Calm Calm - N/A   Overcast
2:36 AM 44.6 °F - 41.0 °F 87% 30.30 in 10.0 mi Calm Calm - N/A   Overcast
2:56 AM 44.6 °F - 41.0 °F 87% 30.30 in 10.0 mi Calm Calm - N/A   Overcast
3:16 AM 44.6 °F - 41.0 °F 87% 30.30 in 10.0 mi Calm Calm - N/A   Overcast
3:36 AM 44.6 °F - 41.0 °F 87% 30.30 in 10.0 mi Calm Calm - N/A   Overcast
3:56 AM 44.6 °F - 41.0 °F 87% 30.31 in 10.0 mi Calm Calm - N/A   Overcast
4:16 AM 44.6 °F - 39.2 °F 81% 30.31 in 10.0 mi Calm Calm - N/A   Overcast
4:36 AM 44.6 °F - 41.0 °F 87% 30.31 in 10.0 mi Calm Calm - N/A   Overcast
4:56 AM 44.6 °F - 41.0 °F 87% 30.31 in 10.0 mi Calm Calm - N/A   Overcast
5:16 AM 44.6 °F - 41.0 °F 87% 30.31 in 10.0 mi Calm Calm - N/A   Overcast
5:36 AM 44.6 °F - 41.0 °F 87% 30.31 in 10.0 mi Calm Calm - N/A   Overcast
5:56 AM 44.6 °F - 41.0 °F 87% 30.31 in 10.0 mi Calm Calm - N/A   Overcast
6:16 AM 44.6 °F 43.1 °F 41.0 °F 87% 30.31 in 10.0 mi SE 3.5 mph - N/A   Overcast
6:36 AM 44.6 °F - 39.2 °F 81% 30.32 in 10.0 mi Calm Calm - N/A   Overcast
6:56 AM 44.6 °F - 39.2 °F 81% 30.32 in 10.0 mi Calm Calm - N/A   Overcast
7:16 AM 44.6 °F - 39.2 °F 81% 30.32 in 10.0 mi Calm Calm - N/A   Overcast
7:36 AM 44.6 °F - 41.0 °F 87% 30.32 in 10.0 mi Calm Calm - N/A   Overcast
7:56 AM 44.6 °F - 41.0 °F 87% 30.32 in 10.0 mi Calm Calm - N/A   Overcast
8:16 AM 46.4 °F - 41.0 °F 81% 30.33 in 10.0 mi Calm Calm - N/A   Overcast
8:36 AM 46.4 °F - 42.8 °F 87% 30.32 in 10.0 mi Calm Calm - N/A   Overcast
8:56 AM 46.4 °F - 41.0 °F 81% 30.33 in 10.0 mi Calm Calm - N/A   Overcast
9:16 AM 46.4 °F - 41.0 °F 81% 30.33 in 10.0 mi Calm Calm - N/A   Overcast
9:36 AM 46.4 °F 45.2 °F 42.8 °F 87% 30.33 in 10.0 mi NW 3.5 mph - N/A   Mostly Cloudy
9:56 AM 46.4 °F 44.3 °F 41.0 °F 81% 30.33 in 10.0 mi North 4.6 mph - N/A   Overcast
10:16 AM 46.4 °F 44.3 °F 42.8 °F 87% 30.34 in 10.0 mi North 4.6 mph - N/A   Overcast
10:56 AM 48.2 °F - 42.8 °F 82% 30.34 in 10.0 mi NNE 5.8 mph - N/A   Scattered Clouds
11:16 AM 48.2 °F - 42.8 °F 82% 30.34 in 10.0 mi NNE 6.9 mph - N/A   Clear
11:36 AM 48.2 °F - 42.8 °F 82% 30.34 in 10.0 mi North 5.8 mph - N/A   Clear
11:56 AM 48.2 °F - 42.8 °F 82% 30.34 in 10.0 mi North 3.5 mph - N/A   Clear
12:16 PM 50.0 °F - 42.8 °F 76% 30.34 in 10.0 mi NNW 4.6 mph - N/A   Clear
12:36 PM 50.0 °F - 42.8 °F 76% 30.34 in 10.0 mi NNW 4.6 mph - N/A   Clear
12:56 PM 51.8 °F - 42.8 °F 71% 30.34 in 10.0 mi North 5.8 mph - N/A   Clear
1:16 PM 51.8 °F - 42.8 °F 71% 30.34 in 10.0 mi North 4.6 mph - N/A   Clear
1:36 PM 51.8 °F - 42.8 °F 71% 30.34 in 10.0 mi North 5.8 mph - N/A   Clear
1:56 PM 51.8 °F - 42.8 °F 71% 30.34 in 10.0 mi NNW 4.6 mph - N/A   Clear
2:16 PM 51.8 °F - 44.6 °F 76% 30.35 in 10.0 mi NW 3.5 mph - N/A   Clear
2:36 PM 51.8 °F - 42.8 °F 71% 30.34 in 10.0 mi NNW 3.5 mph - N/A   Clear
2:56 PM 53.6 °F - 44.6 °F 72% 30.34 in 10.0 mi North 8.1 mph - N/A   Clear
3:16 PM 53.6 °F - 42.8 °F 67% 30.34 in 10.0 mi North 5.8 mph - N/A   Clear
3:36 PM 51.8 °F - 44.6 °F 76% 30.34 in 10.0 mi North 4.6 mph - N/A   Clear
3:56 PM 51.8 °F - 44.6 °F 76% 30.34 in 10.0 mi NNW 3.5 mph - N/A   Clear
4:16 PM 53.6 °F - 44.6 °F 72% 30.33 in 10.0 mi North 5.8 mph - N/A   Clear
4:36 PM 53.6 °F - 42.8 °F 67% 30.33 in 10.0 mi North 6.9 mph - N/A   Clear
4:56 PM 51.8 °F - 44.6 °F 76% 30.33 in 10.0 mi NNW 5.8 mph - N/A   Clear
5:16 PM 51.8 °F - 44.6 °F 76% 30.33 in 10.0 mi North 5.8 mph - N/A   Clear
5:36 PM 50.0 °F - 44.6 °F 82% 30.32 in 10.0 mi North 5.8 mph - N/A   Clear
5:56 PM 50.0 °F - 44.6 °F 82% 30.32 in 10.0 mi North 5.8 mph - N/A   Clear
6:16 PM 51.8 °F - 44.6 °F 76% 30.32 in 10.0 mi NNW 4.6 mph - N/A   Clear
6:36 PM 51.8 °F - 44.6 °F 76% 30.31 in 10.0 mi NNW 5.8 mph - N/A   Clear
6:56 PM 51.8 °F - 44.6 °F 76% 30.31 in 10.0 mi NNW 4.6 mph - N/A   Clear
7:16 PM 50.0 °F - 44.6 °F 82% 30.31 in 10.0 mi NNW 4.6 mph - N/A   Clear
7:36 PM 48.2 °F - 44.6 °F 87% 30.31 in 10.0 mi NNW 4.6 mph - N/A   Clear
7:56 PM 51.8 °F - 44.6 °F 76% 30.30 in 10.0 mi NNW 3.5 mph - N/A   Clear
8:16 PM 51.8 °F - 44.6 °F 76% 30.30 in 10.0 mi NNW 4.6 mph - N/A   Clear
8:36 PM 51.8 °F - 44.6 °F 76% 30.30 in 10.0 mi NNW 4.6 mph - N/A   Clear
8:56 PM 50.0 °F - 44.6 °F 82% 30.30 in 10.0 mi NNW 4.6 mph - N/A   Clear
9:16 PM 48.2 °F - 44.6 °F 87% 30.30 in 10.0 mi Calm Calm - N/A   Clear
9:36 PM 50.0 °F - 44.6 °F 82% 30.30 in 10.0 mi Calm Calm - N/A   Clear
9:56 PM 50.0 °F - 44.6 °F 82% 30.30 in 10.0 mi Calm Calm - N/A   Clear
10:16 PM 48.2 °F - 44.6 °F 87% 30.30 in 10.0 mi Calm Calm - N/A   Clear
10:36 PM 48.2 °F - 44.6 °F 87% 30.30 in 10.0 mi North 3.5 mph - N/A   Clear
10:56 PM 46.4 °F 42.9 °F 42.8 °F 87% 30.30 in 10.0 mi NNW 6.9 mph - N/A   Clear
11:16 PM 46.4 °F - 42.8 °F 87% 30.31 in 10.0 mi Calm Calm - N/A   Clear
11:36 PM 46.4 °F 42.9 °F 42.8 °F 87% 30.30 in 10.0 mi NNW 6.9 mph - N/A   Clear
11:56 PM 46.4 °F 42.9 °F 42.8 °F 87% 30.31 in 7.0 mi NW 6.9 mph - N/A   Partly Cloudy